Showing default

COSMOS 2571, 58172

Orbit data source: Space-Track

COSMOS 2571, 58172 is a payload satellite owned by VVKO VKS (CIS) in LEO that was launched on Fri, 27 Oct 2023 UTC via a SOYUZ-2-1B launch vehicle from the Plesetsk Missile And Space Complex (PKMTR). Payload-class satellites include a variety of spacecraft equipped with specific instruments for various scientific and technological missions. These include communications satellites like Starlink; space stations such as the ISS; scientific satellites like the Hubble; Earth observation satellites from companies like Planet Labs, Umbra, and HawkEye 360; GPS; miniature CubeSats for education and research; and military/defense satellites.

Loading next visibility...
Identifier
58172, 2023-165C
Orbit
LEO
Country
Flag of CISCIS
Related business
Manufacturer
TSSKBP/ARSLO
Mission
Operational Defense Sigint
Bus & Motor
UNK, Unknown motor
Mass
~10 kg wet, ~10 kg dry
Launch date (UTC)
2023-10-27 (3 years ago)
Launch vehicle
SOYUZ-2-1B
Launch site
Plesetsk Missile And Space Complex (PKMTR)
Object type
Payload
Rocket body
Debris
Shape & HBR
Box, 0.1 m
Radar Cross Section
0.080 m², Medium (>0.1 m² and < 1m²)

Expand to show TLE details & history
Last TLE update: 22 hours ago

TLE from 22 hours ago
0 COSMOS 2571
1 58172U 23165C   26172.52331979 -.00000041  00000-0  24696-4 0  9994
2 58172  67.1499 276.8216 0017785 311.2194  48.7357 13.97333676134967
Epoch: 2026-06-21T12:33Z
TLE epoch observation values (Epoch: 2026-06-21T12:33:34.829Z)
Latitude
-0.00006°
Longitude
178.70409°
Altitude
896.623 km
Speed
7.409 km/s
True Right ascension
18h 27m 17s
True Declination
0° 00' 00"
Sunlit
Object was in full shadow at epoch
Visualization orbit readout
Latitude
Unknown
Longitude
Unknown
Altitude
Unknown
Speed
Unknown
Apparent Right ascension
Unknown
Apparent Declination
Unknown
Sunlit
N/A
Visualization observer readout
Local Sidereal Time
21:29:15
Azimuth
Unknown
Elevation
Unknown
Doppler factor
Unknown
Orbital elements
Apogee altitude
914.338 km
Perigee altitude
888.445 km
Semi-major axis
7,279.528 km
Eccentricity
0.00178
Inclination
67.1499°
RAAN
276.8216°
Arg. of periapsis
311.2194°
True anomaly
48.88912°
Mean anomaly
48.7357°
Eccentric anomaly
48.81239°
Mean motion
3.49453 °/min
Orbital period
103.02 mins
BSTAR
0.000024696
Loading maneuver chart data...
Computing Atmospheric mass density...
Loading historical data...
Loading historical data...
Loading historical data...
Loading historical data...
Loading historical data...
Loading historical data...
Loading historical data...
Other satellites on launch #165 in the year 2023 (2023-10-27 UTC)

Documentation

Showing up to 5 results
|